Hourly Data Report for October 25, 2015

All times are specified in Local Standard Time (LST). Add 1 hour to adjust for Daylight Saving Time where and when it is observed.

CAPE DORSET A
NUNAVUT

64°13'49.000" N
76°31'30.000" W
48.20 m
2400637
71366
YTE

Download Data

Hourly Data (October 2015)
Hourly Data Report for October 25, 2015
Temp Definition
°C
Dew Point Temp Definition
°C
Rel Hum Definition
%
Wind Dir Definition
10's deg

Wind Spd Definition
km/h
Visibility Definition
km
Stn Press Definition
kPa
Hmdx Definition


Wind Chill Definition


Weather Definition


TIME
00:00 Legend Double Dagger -8.2 -10.7 82 30 34 16.1 98.63   -18 Snow
01:00 Legend Double Dagger -9.1 -11.9 81 29 39 16.1 98.64   -19 LegendNANA
02:00 Legend Double Dagger -10.0 -13.0 79 29 28 16.1 98.73   -19 LegendNANA
03:00 Legend Double Dagger -9.5 -13.2 75 28 28 16.1 98.75   -19 LegendNANA
04:00 Legend Double Dagger -9.5 -12.5 79 29 32 16.1 98.80   -19 LegendNANA
05:00 Legend Double Dagger -9.6 -13.3 75 29 28 16.1 98.84   -19 Snow
06:00 Legend Double Dagger -9.5 -13.1 75 30 28 16.1 98.86   -19 LegendNANA
07:00 Legend Double Dagger -9.7 -13.2 76 30 30 16.1 98.87   -19 LegendNANA
08:00 Legend Double Dagger -9.9 -13.8 74 LegendMM LegendMM LegendMM 98.91     LegendNANA
09:00 Legend Double Dagger -10.1 -13.7 75 30 26 16.1 98.93   -19 LegendNANA
10:00 Legend Double Dagger -9.9 -14.2 71 30 21 16.1 98.90   -18 LegendNANA
11:00 Legend Double Dagger -9.9 -13.4 76 30 15 16.1 98.88   -17 LegendNANA
12:00 Legend Double Dagger -10.1 -11.9 87 29 15 8.1 98.86   -17 Snow
13:00 Legend Double Dagger -9.3 -13.1 74 26 32 16.1 98.82   -19 Snow
14:00 Legend Double Dagger -9.3 -14.7 65 26 32 16.1 98.82   -19 Snow
15:00 Legend Double Dagger -10.3 -11.9 88 29 30 1.2 98.84   -20 Snow
16:00 Legend Double Dagger -10.7 -13.1 83 29 26 16.1 98.86   -20 Snow
17:00 Legend Double Dagger -11.1 -13.5 82 30 15 8.1 98.88   -18 Snow
18:00 Legend Double Dagger -11.6 -12.9 90 30 13 4.0 98.87   -18 Snow
19:00 Legend Double Dagger -10.8 -14.6 74 25 26 16.1 98.80   -20 Snow
20:00 Legend Double Dagger -10.7 -15.2 70 26 21 16.1 98.77   -19 Snow
21:00 Legend Double Dagger -11.5 -12.8 90 31 22 1.2 98.76   -20 Snow
22:00 Legend Double Dagger -11.6 -14.2 81 30 11 14.5 98.74   -18 Snow
23:00 Legend Double Dagger -11.8 -13.4 88 29 13 6.4 98.71   -18 Snow

Notes on Data Quality.

Legend

  • E = Estimated
  • M = Missing
  • NA = Not Available
  • ‡ = Partner data that is not subject to review by the National Climate Archives
Date modified: